ABS-4 (MOBISAT-1)

Last updated on Oct. 31, 2020, 5:53 a.m. UTC

1 28184U 04007A   20304.91020729  .00000047  00000-0  00000-0 0  9994
2 28184   0.8523  95.2867 0005285 125.2829 207.7728  1.00272127 31727
UTC
Height (km)
Latitude
Longitude
Inclination
Orbital Period
UTC large
Height (km)
Speed (km/s)
/
Latitude / Longitude
Inclination (degrees)
Orbital Period (minutes)
Azimuth
Elevation
Range (km)
Doppler Factor
iOS Compass Heading
iOS Angle

Next 30 passes for location: Hong Kong

Rise time Rise Azimuth (degrees) Set time Set Azimuth (degrees) Duration Max altitude (degrees)

No matching passes for this satellites